FW9069 Weather Reports


Display with metric or nautical units.
time (UTC)temp
F
wind
direction
speed
MPH
gust
MPH
rain 1hr
in
rain 24hr
in
rain mn
in
humidity
%
barometer
mb
20260508044838 57 230 5.0 11.0 0.00 0.00 0.00 67 1017.2
20260508043326 58 213 8.0 14.0 0.00 0.00 0.00 66 1017.2
20260508041852 58 229 8.0 12.0 0.00 0.00 0.00 64 1017.1
20260508040319 59 243 5.0 10.0 0.00 0.00 0.00 62 1016.9
20260508034829 60 235 6.0 10.0 0.00 0.00 0.00 62 1016.9
20260508033318 61 233 6.0 11.0 0.00 0.00 0.00 62 1016.7
20260508031827 62 231 5.0 11.0 0.00 0.00 0.00 63 1016.5
20260508030332 63 246 5.0 10.0 0.00 0.00 0.00 63 1016.5
20260508024821 65 247 5.0 9.0 0.00 0.00 0.00 61 1016.5
20260508023326 68 240 4.0 9.0 0.00 0.00 0.00 59 1016.6
20260508021833 70 260 2.0 3.0 0.00 0.00 0.00 59 1016.6
20260508020323 71 260 2.0 3.0 0.00 0.00 0.00 54 1016.5
20260508014828 72 233 1.0 4.0 0.00 0.00 0.00 52 1016.4
20260508013335 71 229 3.0 4.0 0.00 0.00 0.00 54 1016.6
20260508011823 70 339 1.0 3.0 0.00 0.00 0.00 53 1016.9
20260508010334 71 329 2.0 6.0 0.00 0.00 0.00 52 1016.9
20260508004822 72 7 2.0 7.0 0.00 0.00 0.00 50 1017.0
20260508003326 73 325 2.0 5.0 0.00 0.00 0.00 49 1017.1
20260508001859 72 331 1.0 2.0 0.00 0.00 0.00 51 1017.2
20260508000323 71 342 2.0 8.0 0.00 0.00 0.00 51 1017.3
20260507234847 72 310 2.0 5.0 0.00 0.00 0.00 49 1017.3
20260507233335 71 358 2.0 8.0 0.00 0.00 0.00 53 1017.5
20260507231842 72 3 1.0 8.0 0.00 0.00 0.00 50 1017.7
20260507230324 73 335 2.0 6.0 0.00 0.00 0.00 51 1017.9
20260507224852 71 301 2.0 4.0 0.00 0.00 0.00 53 1018.1
20260507223359 71 28 2.0 4.0 0.00 0.00 0.00 51 1018.3
20260507221822 73 122 2.0 7.0 0.00 0.00 0.00 50 1018.4
20260507220329 72 26 1.0 5.0 0.00 0.00 0.00 51 1018.6
20260507214814 70 217 2.0 4.0 0.00 0.00 0.00 53 1018.8
20260507213329 69 306 1.0 8.0 0.00 0.00 0.00 55 1018.8
20260507211838 70 326 2.0 8.0 0.00 0.00 0.00 54 1019.0
20260507210343 70 340 2.0 8.0 0.00 0.00 0.00 57 1019.1
20260507204827 69 212 3.0 7.0 0.00 0.00 0.00 59 1019.4
20260507203349 68 236 3.0 7.0 0.00 0.00 0.00 62 1019.6
20260507201817 67 10 4.0 8.0 0.00 0.00 0.00 62 1019.7
20260507200342 66 39 2.0 7.0 0.00 0.00 0.00 59 1019.8
20260507194824 65 328 4.0 10.0 0.00 0.00 0.00 66 1020.1
20260507193332 64 43 2.0 7.0 0.00 0.00 0.00 67 1020.1
20260507191834 63 317 1.0 4.0 0.00 0.00 0.00 70 1020.2
20260507190347 62 215 2.0 5.0 0.00 0.00 0.00 65 1020.4
20260507184832 60 227 1.0 4.0 0.00 0.00 0.00 72 1020.5
20260507183347 60 327 3.0 6.0 0.00 0.00 0.00 70 1020.5
20260507181853 60 310 1.0 7.0 0.00 0.00 0.00 73 1020.7
20260507180353 59 346 3.0 8.0 0.00 0.00 0.00 76 1020.8
20260507174823 58 354 3.0 7.0 0.00 0.00 0.00 75 1020.9
20260507173333 58 327 5.0 8.0 0.00 0.00 0.00 73 1020.9
20260507171842 58 337 3.0 9.0 0.00 0.00 0.00 75 1020.9
20260507170321 57 326 4.0 8.0 0.00 0.00 0.00 78 1020.9
20260507164826 56 324 2.0 5.0 0.00 0.00 0.00 79 1020.9
20260507163352 55 320 4.0 8.0 0.00 0.00 0.00 79 1020.9
20260507161840 55 353 4.0 10.0 0.00 0.00 0.00 80 1021.0
20260507160355 55 358 4.0 8.0 0.00 0.00 0.00 80 1020.9
20260507154838 54 341 5.0 8.0 0.00 0.00 0.00 81 1020.9
20260507153324 53 318 2.0 7.0 0.00 0.00 0.00 83 1021.0
20260507151814 53 328 5.0 9.0 0.00 0.00 0.00 84 1021.1
20260507150326 53 311 1.0 6.0 0.00 0.00 0.00 85 1021.1
20260507144814 53 322 3.0 6.0 0.00 0.00 0.00 87 1021.1
20260507143345 52 319 3.0 5.0 0.00 0.00 0.00 87 1021.0
20260507141830 52 319 3.0 5.0 0.00 0.00 0.00 89 1020.9
20260507140321 52 320 1.0 3.0 0.00 0.00 0.00 89 1020.7
20260507134835 52 320 0.0 3.0 0.00 0.00 0.00 89 1020.6
20260507133344 52 320 0.0 2.0 0.00 0.00 0.00 89 1020.5
20260507131830 52 320 2.0 3.0 0.00 0.00 0.00 89 1020.6
20260507130319 52 320 0.0 2.0 0.00 0.00 0.00 89 1020.8
20260507124826 52 320 1.0 3.0 0.00 0.00 0.00 89 1020.7
20260507123354 52 320 0.0 3.0 0.00 0.00 0.00 89 1020.8
20260507121821 52 320 2.0 3.0 0.00 0.00 0.00 88 1020.8
20260507120350 52 320 1.0 3.0 0.00 0.00 0.00 88 1020.9
20260507114857 52 321 2.0 4.0 0.00 0.00 0.00 88 1021.0
20260507113341 52 315 2.0 3.0 0.00 0.00 0.00 88 1021.1
20260507111835 52 311 1.0 4.0 0.00 0.00 0.00 88 1021.2
20260507110356 52 288 1.0 4.0 0.00 0.00 0.00 88 1021.1
20260507104823 52 261 0.0 3.0 0.00 0.00 0.00 88 1021.1
20260507103331 52 242 0.0 1.0 0.00 0.00 0.00 88 1021.3
20260507101839 52 242 1.0 5.0 0.00 0.00 0.00 87 1021.3
20260507100330 52 250 2.0 7.0 0.00 0.00 0.00 87 1021.4
20260507094820 52 231 4.0 7.0 0.00 0.00 0.00 87 1021.4
20260507093329 53 244 2.0 7.0 0.00 0.00 0.00 86 1021.6
20260507091837 53 238 1.0 5.0 0.00 0.00 0.00 86 1021.6
20260507090348 53 249 2.0 4.0 0.00 0.00 0.00 86 1021.9
20260507084858 53 262 2.0 5.0 0.00 0.00 0.00 87 1021.9
20260507083324 53 238 0.0 3.0 0.00 0.00 0.00 87 1021.8
20260507081833 53 230 3.0 5.0 0.00 0.00 0.00 87 1021.7
20260507080322 53 238 2.0 8.0 0.00 0.00 0.00 87 1021.7
20260507074829 53 239 5.0 9.0 0.00 0.00 0.00 87 1021.7
20260507073335 53 249 7.0 10.0 0.00 0.00 0.00 87 1021.7
20260507071825 53 239 6.0 10.0 0.00 0.00 0.00 86 1021.7
20260507070317 53 235 5.0 9.0 0.00 0.00 0.00 86 1021.6
20260507064826 53 214 6.0 11.0 0.00 0.00 0.00 86 1021.6
20260507063334 53 238 4.0 10.0 0.00 0.00 0.00 87 1021.6
20260507060332 52 230 7.0 12.0 0.00 0.00 0.00 87 1021.7
20260507054835 52 234 7.0 12.0 0.00 0.00 0.00 87 1021.5
20260507053345 52 237 9.0 16.0 0.00 0.00 0.00 86 1021.5
20260507051835 52 229 11.0 19.0 0.00 0.00 0.00 86 1021.3
20260507050323 52 247 10.0 19.0 0.00 0.00 0.00 85 1021.5